Time,TemperatureF,DewpointF,PressureIn,WindDirection,WindDirectionDegrees,WindSpeedMPH,WindSpeedGustMPH,Humidity,HourlyPrecipIn,Conditions,Clouds,dailyrainin,SoftwareType,DateUTC
2013-09-22 00:08:00,66.6,51.8,29.84,ESE,123,3.0,3.0,59,0.00,,,0.00,Wunderground v.1.15,2013-09-22 06:08:00,
2013-09-22 00:18:00,66.3,52.0,29.84,SSE,152,2.0,2.0,60,0.00,,,0.00,Wunderground v.1.15,2013-09-22 06:18:00,
2013-09-22 00:28:00,66.1,51.8,29.84,ESE,115,2.0,5.0,60,0.00,,,0.00,Wunderground v.1.15,2013-09-22 06:28:00,
2013-09-22 00:38:00,66.1,52.3,29.84,ESE,111,3.0,4.0,61,0.00,,,0.00,Wunderground v.1.15,2013-09-22 06:38:00,
2013-09-22 00:48:00,66.0,52.2,29.83,SSE,152,3.0,3.0,61,0.00,,,0.00,Wunderground v.1.15,2013-09-22 06:48:00,
2013-09-22 00:58:00,65.8,52.4,29.83,SSE,149,3.0,3.0,62,0.00,,,0.00,Wunderground v.1.15,2013-09-22 06:58:00,
2013-09-22 01:08:00,65.7,52.3,29.83,ESE,121,2.0,2.0,62,0.00,,,0.00,Wunderground v.1.15,2013-09-22 07:08:00,
2013-09-22 01:13:00,65.8,52.4,29.83,SE,143,3.0,4.0,62,0.00,,,0.00,Wunderground v.1.15,2013-09-22 07:13:00,
2013-09-22 01:23:00,65.8,52.4,29.83,SE,141,4.0,5.0,62,0.00,,,0.00,Wunderground v.1.15,2013-09-22 07:23:00,
2013-09-22 01:33:00,65.7,52.3,29.83,ESE,109,3.0,4.0,62,0.00,,,0.00,Wunderground v.1.15,2013-09-22 07:33:00,
2013-09-22 01:43:00,65.4,52.0,29.83,ESE,103,3.0,6.0,62,0.00,,,0.00,Wunderground v.1.15,2013-09-22 07:43:00,
2013-09-22 01:53:00,65.3,51.9,29.83,SE,124,3.0,4.0,62,0.00,,,0.00,Wunderground v.1.15,2013-09-22 07:53:00,
2013-09-22 01:58:00,65.2,51.8,29.83,ESE,107,3.0,3.0,62,0.00,,,0.00,Wunderground v.1.15,2013-09-22 07:58:00,
2013-09-22 02:08:00,65.2,51.8,29.83,SE,125,3.0,3.0,62,0.00,,,0.00,Wunderground v.1.15,2013-09-22 08:08:00,
2013-09-22 02:18:00,64.9,51.6,29.82,ESE,122,2.0,3.0,62,0.00,,,0.00,Wunderground v.1.15,2013-09-22 08:18:00,
2013-09-22 02:28:00,64.9,51.6,29.82,SE,145,3.0,3.0,62,0.00,,,0.00,Wunderground v.1.15,2013-09-22 08:28:00,
2013-09-22 02:38:00,64.8,51.5,29.82,SE,139,3.0,3.0,62,0.00,,,0.00,Wunderground v.1.15,2013-09-22 08:38:00,
2013-09-22 02:48:00,64.6,51.3,29.82,East,91,2.0,2.0,62,0.00,,,0.00,Wunderground v.1.15,2013-09-22 08:48:00,
2013-09-22 02:58:00,64.5,51.6,29.81,SE,143,2.0,5.0,63,0.00,,,0.00,Wunderground v.1.15,2013-09-22 08:58:00,
2013-09-22 03:08:00,64.4,51.5,29.81,SE,141,2.0,2.0,63,0.00,,,0.00,Wunderground v.1.15,2013-09-22 09:08:00,
2013-09-22 03:13:00,64.3,51.4,29.81,SE,129,2.0,3.0,63,0.00,,,0.00,Wunderground v.1.15,2013-09-22 09:13:00,
2013-09-22 03:23:00,64.1,51.2,29.80,ESE,104,2.0,3.0,63,0.00,,,0.00,Wunderground v.1.15,2013-09-22 09:23:00,
2013-09-22 03:33:00,63.9,51.5,29.80,ESE,123,2.0,4.0,64,0.00,,,0.00,Wunderground v.1.15,2013-09-22 09:33:00,
2013-09-22 03:43:00,63.7,51.3,29.80,ESE,119,2.0,4.0,64,0.00,,,0.00,Wunderground v.1.15,2013-09-22 09:43:00,
2013-09-22 03:53:00,63.6,51.6,29.79,SE,134,2.0,2.0,65,0.00,,,0.00,Wunderground v.1.15,2013-09-22 09:53:00,
2013-09-22 03:58:00,63.5,51.5,29.79,SE,135,2.0,2.0,65,0.00,,,0.00,Wunderground v.1.15,2013-09-22 09:58:00,
2013-09-22 04:08:00,63.3,51.7,29.79,ESE,118,2.0,4.0,66,0.00,,,0.00,Wunderground v.1.15,2013-09-22 10:08:00,
2013-09-22 04:18:00,63.1,51.6,29.79,SE,124,1.0,1.0,66,0.00,,,0.00,Wunderground v.1.15,2013-09-22 10:18:00,
2013-09-22 04:28:00,62.8,51.7,29.79,SE,137,1.0,1.0,67,0.00,,,0.00,Wunderground v.1.15,2013-09-22 10:28:00,
2013-09-22 04:38:00,62.4,51.7,29.79,SE,136,0.0,0.0,68,0.00,,,0.00,Wunderground v.1.15,2013-09-22 10:38:00,
2013-09-22 04:48:00,61.9,51.6,29.78,SE,133,0.0,2.0,69,0.00,,,0.00,Wunderground v.1.15,2013-09-22 10:48:00,
2013-09-22 04:53:00,61.8,51.5,29.78,SE,128,0.0,2.0,69,0.00,,,0.00,Wunderground v.1.15,2013-09-22 10:53:00,
2013-09-22 05:03:00,61.3,51.4,29.78,ESE,123,0.0,0.0,70,0.00,,,0.00,Wunderground v.1.15,2013-09-22 11:03:00,
2013-09-22 05:13:00,61.2,51.7,29.78,ESE,121,0.0,0.0,71,0.00,,,0.00,Wunderground v.1.15,2013-09-22 11:13:00,
2013-09-22 05:18:00,61.1,51.6,29.78,SE,129,0.0,1.0,71,0.00,,,0.00,Wunderground v.1.15,2013-09-22 11:18:00,
2013-09-22 05:28:00,61.1,52.0,29.78,ESE,111,0.0,0.0,72,0.00,,,0.00,Wunderground v.1.15,2013-09-22 11:28:00,
2013-09-22 05:38:00,61.6,52.1,29.78,SSE,153,1.0,1.0,71,0.00,,,0.00,Wunderground v.1.15,2013-09-22 11:38:00,
2013-09-22 05:48:00,61.7,52.2,29.78,ESE,118,1.0,2.0,71,0.00,,,0.00,Wunderground v.1.15,2013-09-22 11:48:00,
2013-09-22 05:58:00,61.6,52.1,29.78,SE,141,2.0,2.0,71,0.00,,,0.00,Wunderground v.1.15,2013-09-22 11:58:00,
2013-09-22 06:08:00,61.6,52.5,29.78,SE,133,3.0,4.0,72,0.00,,,0.00,Wunderground v.1.15,2013-09-22 12:08:00,
2013-09-22 06:18:00,61.8,52.3,29.78,SE,132,3.0,3.0,71,0.00,,,0.00,Wunderground v.1.15,2013-09-22 12:18:00,
2013-09-22 06:28:00,61.8,52.3,29.78,SE,141,2.0,2.0,71,0.00,,,0.00,Wunderground v.1.15,2013-09-22 12:28:00,
2013-09-22 06:38:00,61.7,52.2,29.78,SE,143,2.0,3.0,71,0.00,,,0.00,Wunderground v.1.15,2013-09-22 12:38:00,
2013-09-22 06:43:00,61.7,52.2,29.78,ESE,104,2.0,3.0,71,0.00,,,0.00,Wunderground v.1.15,2013-09-22 12:43:00,
2013-09-22 06:53:00,61.8,51.9,29.78,SE,125,2.0,2.0,70,0.00,,,0.00,Wunderground v.1.15,2013-09-22 12:53:00,
2013-09-22 06:58:00,61.7,51.8,29.78,ESE,122,2.0,3.0,70,0.00,,,0.00,Wunderground v.1.15,2013-09-22 12:58:00,
2013-09-22 07:08:00,61.6,51.7,29.78,SE,131,2.0,3.0,70,0.00,,,0.00,Wunderground v.1.15,2013-09-22 13:08:00,
2013-09-22 07:18:00,61.6,51.7,29.79,SE,141,3.0,3.0,70,0.00,,,0.00,Wunderground v.1.15,2013-09-22 13:18:00,
2013-09-22 07:28:00,61.7,51.8,29.79,SE,129,3.0,3.0,70,0.00,,,0.00,Wunderground v.1.15,2013-09-22 13:28:00,
2013-09-22 07:38:00,62.0,51.7,29.79,SE,146,3.0,4.0,69,0.00,,,0.00,Wunderground v.1.15,2013-09-22 13:38:00,
2013-09-22 07:48:00,62.5,51.8,29.79,SE,129,3.0,3.0,68,0.00,,,0.00,Wunderground v.1.15,2013-09-22 13:48:00,
2013-09-22 07:58:00,63.0,51.9,29.80,ESE,110,4.0,4.0,67,0.00,,,0.00,Wunderground v.1.15,2013-09-22 13:58:00,
2013-09-22 08:08:00,63.4,51.8,29.80,South,187,3.0,5.0,66,0.00,,,0.00,Wunderground v.1.15,2013-09-22 14:08:00,
2013-09-22 08:18:00,63.7,52.1,29.79,East,86,3.0,3.0,66,0.00,,,0.00,Wunderground v.1.15,2013-09-22 14:18:00,
2013-09-22 08:28:00,64.0,52.0,29.79,ESE,123,5.0,5.0,65,0.00,,,0.00,Wunderground v.1.15,2013-09-22 14:28:00,
2013-09-22 08:38:00,64.2,51.8,29.79,SSE,155,5.0,8.0,64,0.00,,,0.00,Wunderground v.1.15,2013-09-22 14:38:00,
2013-09-22 08:43:00,64.3,51.9,29.79,SSW,205,6.0,8.0,64,0.00,,,0.00,Wunderground v.1.15,2013-09-22 14:43:00,
2013-09-22 08:53:00,64.8,52.3,29.79,SSE,160,4.0,5.0,64,0.00,,,0.00,Wunderground v.1.15,2013-09-22 14:53:00,
2013-09-22 08:58:00,65.1,52.6,29.79,SE,135,5.0,5.0,64,0.00,,,0.00,Wunderground v.1.15,2013-09-22 14:58:00,
2013-09-22 09:08:00,66.2,52.3,29.79,SSE,147,6.0,9.0,61,0.00,,,0.00,Wunderground v.1.15,2013-09-22 15:08:00,
2013-09-22 09:18:00,67.0,52.2,29.78,ESE,121,8.0,8.0,59,0.00,,,0.00,Wunderground v.1.15,2013-09-22 15:18:00,
2013-09-22 09:28:00,67.4,52.1,29.78,South,172,7.0,7.0,58,0.00,,,0.00,Wunderground v.1.15,2013-09-22 15:28:00,
2013-09-22 09:38:00,67.5,52.2,29.78,ESE,110,8.0,8.0,58,0.00,,,0.00,Wunderground v.1.15,2013-09-22 15:38:00,
2013-09-22 09:48:00,67.8,52.5,29.78,SE,135,8.0,8.0,58,0.00,,,0.00,Wunderground v.1.15,2013-09-22 15:48:00,
2013-09-22 09:58:00,68.4,52.6,29.77,SE,145,7.0,7.0,57,0.00,,,0.00,Wunderground v.1.15,2013-09-22 15:58:00,
2013-09-22 10:08:00,68.6,52.3,29.77,SE,138,8.0,8.0,56,0.00,,,0.00,Wunderground v.1.15,2013-09-22 16:08:00,
2013-09-22 10:18:00,69.2,52.3,29.77,SSE,152,6.0,11.0,55,0.00,,,0.00,Wunderground v.1.15,2013-09-22 16:18:00,
2013-09-22 10:28:00,69.6,52.7,29.77,South,179,7.0,7.0,55,0.00,,,0.00,Wunderground v.1.15,2013-09-22 16:28:00,
2013-09-22 10:38:00,70.0,52.6,29.75,SE,125,7.0,7.0,54,0.00,,,0.00,Wunderground v.1.15,2013-09-22 16:38:00,
2013-09-22 10:43:00,70.1,52.7,29.75,South,184,6.0,7.0,54,0.00,,,0.00,Wunderground v.1.15,2013-09-22 16:43:00,
2013-09-22 10:53:00,70.6,52.1,29.75,SSE,152,7.0,7.0,52,0.00,,,0.00,Wunderground v.1.15,2013-09-22 16:53:00,
2013-09-22 10:58:00,70.9,52.4,29.74,SE,132,7.0,7.0,52,0.00,,,0.00,Wunderground v.1.15,2013-09-22 16:58:00,
2013-09-22 11:08:00,71.7,52.6,29.74,SSE,156,6.0,9.0,51,0.00,,,0.00,Wunderground v.1.15,2013-09-22 17:08:00,
2013-09-22 11:18:00,72.4,52.2,29.74,SSE,159,5.0,7.0,49,0.00,,,0.00,Wunderground v.1.15,2013-09-22 17:18:00,
2013-09-22 11:23:00,72.5,51.7,29.73,South,170,5.0,7.0,48,0.00,,,0.00,Wunderground v.1.15,2013-09-22 17:23:00,
2013-09-22 11:33:00,72.9,52.1,29.72,South,187,7.0,7.0,48,0.00,,,0.00,Wunderground v.1.15,2013-09-22 17:33:00,
2013-09-22 11:38:00,73.2,51.8,29.72,SSW,200,5.0,9.0,47,0.00,,,0.00,Wunderground v.1.15,2013-09-22 17:38:00,
2013-09-22 11:48:00,73.5,51.4,29.71,SSE,153,6.0,6.0,46,0.00,,,0.00,Wunderground v.1.15,2013-09-22 17:48:00,
2013-09-22 11:58:00,73.8,51.1,29.71,SE,141,6.0,6.0,45,0.00,,,0.00,Wunderground v.1.15,2013-09-22 17:58:00,
2013-09-22 12:08:00,73.9,51.2,29.70,SE,128,8.0,8.0,45,0.00,,,0.00,Wunderground v.1.15,2013-09-22 18:08:00,
2013-09-22 12:18:00,74.4,51.7,29.69,SE,125,7.0,8.0,45,0.00,,,0.00,Wunderground v.1.15,2013-09-22 18:18:00,
2013-09-22 12:28:00,74.6,51.2,29.68,SE,143,7.0,7.0,44,0.00,,,0.00,Wunderground v.1.15,2013-09-22 18:28:00,
2013-09-22 12:38:00,75.3,50.6,29.68,SSE,165,6.0,6.0,42,0.00,,,0.00,Wunderground v.1.15,2013-09-22 18:38:00,
2013-09-22 12:43:00,75.7,51.6,29.68,SE,136,6.0,11.0,43,0.00,,,0.00,Wunderground v.1.15,2013-09-22 18:43:00,
2013-09-22 12:48:00,75.5,50.1,29.67,SE,138,6.0,6.0,41,0.00,,,0.00,Wunderground v.1.15,2013-09-22 18:48:00,
2013-09-22 12:58:00,76.2,49.4,29.67,SSW,205,6.0,8.0,39,0.00,,,0.00,Wunderground v.1.15,2013-09-22 18:58:00,
2013-09-22 13:08:00,76.3,50.2,29.66,SE,136,7.0,7.0,40,0.00,,,0.00,Wunderground v.1.15,2013-09-22 19:08:00,
2013-09-22 13:18:00,76.6,49.8,29.65,SSE,163,6.0,10.0,39,0.00,,,0.00,Wunderground v.1.15,2013-09-22 19:18:00,
2013-09-22 13:23:00,76.3,50.2,29.64,SE,139,7.0,10.0,40,0.00,,,0.00,Wunderground v.1.15,2013-09-22 19:23:00,
2013-09-22 13:28:00,77.0,49.4,29.64,SSW,211,6.0,6.0,38,0.00,,,0.00,Wunderground v.1.15,2013-09-22 19:28:00,
2013-09-22 13:38:00,76.8,49.3,29.63,SSW,201,8.0,8.0,38,0.00,,,0.00,Wunderground v.1.15,2013-09-22 19:38:00,
2013-09-22 13:53:00,78.0,50.3,29.62,South,173,6.0,7.0,38,0.00,,,0.00,Wunderground v.1.15,2013-09-22 19:53:00,
2013-09-22 13:58:00,77.9,49.5,29.62,SSW,193,6.0,6.0,37,0.00,,,0.00,Wunderground v.1.15,2013-09-22 19:58:00,
2013-09-22 14:08:00,77.4,49.8,29.61,SE,130,7.0,13.0,38,0.00,,,0.00,Wunderground v.1.15,2013-09-22 20:08:00,
2013-09-22 14:18:00,77.7,49.3,29.60,South,174,9.0,14.0,37,0.00,,,0.00,Wunderground v.1.15,2013-09-22 20:18:00,
2013-09-22 14:28:00,78.5,50.1,29.59,SSE,157,8.0,8.0,37,0.00,,,0.00,Wunderground v.1.15,2013-09-22 20:28:00,
2013-09-22 14:38:00,78.3,49.9,29.58,SSE,148,10.0,10.0,37,0.00,,,0.00,Wunderground v.1.15,2013-09-22 20:38:00,
2013-09-22 14:48:00,78.8,49.6,29.58,SW,222,10.0,10.0,36,0.00,,,0.00,Wunderground v.1.15,2013-09-22 20:48:00,
2013-09-22 14:58:00,78.4,49.2,29.57,SE,137,11.0,12.0,36,0.00,,,0.00,Wunderground v.1.15,2013-09-22 20:58:00,
2013-09-22 15:08:00,78.6,49.4,29.57,East,100,11.0,11.0,36,0.00,,,0.00,Wunderground v.1.15,2013-09-22 21:08:00,
2013-09-22 15:18:00,79.0,49.8,29.56,SSE,152,10.0,15.0,36,0.00,,,0.00,Wunderground v.1.15,2013-09-22 21:18:00,
2013-09-22 15:23:00,78.6,48.7,29.55,SSE,149,12.0,15.0,35,0.00,,,0.00,Wunderground v.1.15,2013-09-22 21:23:00,
2013-09-22 15:33:00,79.5,47.1,29.54,SSW,194,10.0,12.0,32,0.00,,,0.00,Wunderground v.1.15,2013-09-22 21:33:00,
2013-09-22 15:43:00,79.1,47.5,29.52,SSE,156,12.0,12.0,33,0.00,,,0.00,Wunderground v.1.15,2013-09-22 21:43:00,
2013-09-22 15:53:00,79.4,47.0,29.52,SE,146,9.0,15.0,32,0.00,,,0.00,Wunderground v.1.15,2013-09-22 21:53:00,
2013-09-22 15:58:00,79.3,46.9,29.52,SSE,150,11.0,11.0,32,0.00,,,0.00,Wunderground v.1.15,2013-09-22 21:58:00,
2013-09-22 16:08:00,79.2,47.6,29.51,ESE,122,15.0,15.0,33,0.00,,,0.00,Wunderground v.1.15,2013-09-22 22:08:00,
2013-09-22 16:18:00,79.4,46.1,29.51,South,169,13.0,16.0,31,0.00,,,0.00,Wunderground v.1.15,2013-09-22 22:18:00,
2013-09-22 16:28:00,78.9,46.5,29.50,SE,139,15.0,15.0,32,0.00,,,0.00,Wunderground v.1.15,2013-09-22 22:28:00,
2013-09-22 16:33:00,79.1,46.7,29.50,SE,139,14.0,15.0,32,0.00,,,0.00,Wunderground v.1.15,2013-09-22 22:33:00,
2013-09-22 16:43:00,79.1,46.7,29.49,South,176,13.0,14.0,32,0.00,,,0.00,Wunderground v.1.15,2013-09-22 22:43:00,
2013-09-22 16:53:00,79.4,47.0,29.50,SSE,151,10.0,15.0,32,0.00,,,0.00,Wunderground v.1.15,2013-09-22 22:53:00,
2013-09-22 16:58:00,79.3,46.9,29.51,SSW,205,11.0,21.0,32,0.00,,,0.00,Wunderground v.1.15,2013-09-22 22:58:00,
2013-09-22 17:08:00,78.7,47.2,29.51,SSE,157,12.0,12.0,33,0.00,,,0.00,Wunderground v.1.15,2013-09-22 23:08:00,
2013-09-22 17:18:00,77.7,47.9,29.50,SW,221,12.0,17.0,35,0.00,,,0.00,Wunderground v.1.15,2013-09-22 23:18:00,
2013-09-22 17:28:00,76.8,47.8,29.50,South,174,14.0,14.0,36,0.00,,,0.00,Wunderground v.1.15,2013-09-22 23:28:00,
2013-09-22 17:38:00,76.4,48.2,29.50,SSW,200,14.0,14.0,37,0.00,,,0.00,Wunderground v.1.15,2013-09-22 23:38:00,
2013-09-22 17:43:00,76.2,48.7,29.50,SSE,155,14.0,14.0,38,0.00,,,0.00,Wunderground v.1.15,2013-09-22 23:43:00,
2013-09-22 17:48:00,75.9,49.2,29.50,South,180,13.0,13.0,39,0.00,,,0.00,Wunderground v.1.15,2013-09-22 23:48:00,
2013-09-22 17:53:00,75.7,49.7,29.50,SE,141,11.0,13.0,40,0.00,,,0.00,Wunderground v.1.15,2013-09-22 23:53:00,
2013-09-22 17:58:00,75.6,49.6,29.52,SE,141,12.0,12.0,40,0.00,,,0.00,Wunderground v.1.15,2013-09-22 23:58:00,
2013-09-22 18:08:00,73.9,51.8,29.55,SW,218,13.0,13.0,46,0.00,,,0.00,Wunderground v.1.15,2013-09-23 00:08:00,
2013-09-22 18:18:00,68.0,52.2,29.60,SSE,154,13.0,13.0,57,1.52,,,0.02,Wunderground v.1.15,2013-09-23 00:18:00,
2013-09-22 18:28:00,57.8,51.3,29.56,SE,132,14.0,14.0,79,0.14,,,0.12,Wunderground v.1.15,2013-09-23 00:28:00,
2013-09-22 18:38:00,57.3,53.1,29.57,East,96,7.0,7.0,86,0.04,,,0.12,Wunderground v.1.15,2013-09-23 00:38:00,
2013-09-22 18:48:00,57.9,54.1,29.57,SE,125,3.0,3.0,87,0.00,,,0.12,Wunderground v.1.15,2013-09-23 00:48:00,
2013-09-22 18:58:00,58.4,55.2,29.56,SW,217,1.0,1.0,89,0.00,,,0.12,Wunderground v.1.15,2013-09-23 00:58:00,
2013-09-22 19:13:00,59.4,55.5,29.57,SW,228,3.0,3.0,87,0.00,,,0.12,Wunderground v.1.15,2013-09-23 01:13:00,
2013-09-22 19:18:00,59.3,55.4,29.57,SSE,158,2.0,2.0,87,0.00,,,0.13,Wunderground v.1.15,2013-09-23 01:18:00,
2013-09-22 19:28:00,59.1,55.5,29.55,SE,134,5.0,8.0,88,0.14,,,0.23,Wunderground v.1.15,2013-09-23 01:28:00,
2013-09-22 19:38:00,58.7,55.5,29.55,ESE,122,6.0,6.0,89,0.05,,,0.23,Wunderground v.1.15,2013-09-23 01:38:00,
2013-09-22 19:48:00,58.5,55.6,29.54,ESE,120,3.0,3.0,90,0.00,,,0.23,Wunderground v.1.15,2013-09-23 01:48:00,
2013-09-22 19:53:00,58.3,55.7,29.54,SE,139,2.0,5.0,91,0.00,,,0.23,Wunderground v.1.15,2013-09-23 01:53:00,
2013-09-22 19:58:00,58.6,56.0,29.54,ESE,117,3.0,3.0,91,0.00,,,0.23,Wunderground v.1.15,2013-09-23 01:58:00,
2013-09-22 20:08:00,58.9,56.0,29.55,ESE,117,4.0,5.0,90,0.00,,,0.23,Wunderground v.1.15,2013-09-23 02:08:00,
2013-09-22 20:13:00,59.1,56.2,29.53,SSE,152,4.0,5.0,90,0.00,,,0.23,Wunderground v.1.15,2013-09-23 02:13:00,
2013-09-22 20:23:00,59.7,56.5,29.55,SSW,201,2.0,3.0,89,0.88,,,0.26,Wunderground v.1.15,2013-09-23 02:23:00,
2013-09-22 20:33:00,59.5,56.9,29.60,West,266,3.0,4.0,91,0.19,,,0.34,Wunderground v.1.15,2013-09-23 02:33:00,
2013-09-22 20:43:00,58.9,56.6,29.61,WSW,246,2.0,3.0,92,0.18,,,0.43,Wunderground v.1.15,2013-09-23 02:43:00,
2013-09-22 20:48:00,58.7,56.4,29.63,West,265,2.0,2.0,92,0.07,,,0.43,Wunderground v.1.15,2013-09-23 02:48:00,
2013-09-22 20:58:00,58.6,56.6,29.61,NNE,31,1.0,1.0,93,0.06,,,0.44,Wunderground v.1.15,2013-09-23 02:58:00,
2013-09-22 21:08:00,58.6,56.9,29.62,SE,139,0.0,2.0,94,0.05,,,0.45,Wunderground v.1.15,2013-09-23 03:08:00,
2013-09-22 21:18:00,58.6,56.9,29.62,SE,143,1.0,1.0,94,0.04,,,0.45,Wunderground v.1.15,2013-09-23 03:18:00,
2013-09-22 21:28:00,58.6,56.9,29.63,SE,129,3.0,3.0,94,0.00,,,0.45,Wunderground v.1.15,2013-09-23 03:28:00,
2013-09-22 21:33:00,58.6,56.9,29.62,SSE,149,2.0,3.0,94,0.00,,,0.45,Wunderground v.1.15,2013-09-23 03:33:00,
2013-09-22 21:43:00,58.5,56.8,29.63,SE,138,1.0,2.0,94,0.00,,,0.45,Wunderground v.1.15,2013-09-23 03:43:00,
2013-09-22 21:53:00,58.4,56.7,29.64,SE,138,0.0,0.0,94,0.00,,,0.45,Wunderground v.1.15,2013-09-23 03:53:00,
2013-09-22 21:58:00,58.2,56.5,29.64,NNW,337,0.0,1.0,94,0.00,,,0.45,Wunderground v.1.15,2013-09-23 03:58:00,
2013-09-22 22:03:00,58.3,56.6,29.64,West,259,0.0,1.0,94,0.00,,,0.45,Wunderground v.1.15,2013-09-23 04:03:00,
2013-09-22 22:08:00,58.3,56.6,29.65,NNE,20,0.0,0.0,94,0.00,,,0.45,Wunderground v.1.15,2013-09-23 04:08:00,
2013-09-22 22:18:00,58.2,56.5,29.65,NNE,22,0.0,0.0,94,0.00,,,0.45,Wunderground v.1.15,2013-09-23 04:18:00,
2013-09-22 22:28:00,57.9,56.5,29.65,NNE,21,0.0,0.0,95,0.00,,,0.45,Wunderground v.1.15,2013-09-23 04:28:00,
2013-09-22 22:33:00,57.9,56.5,29.65,NNE,20,0.0,0.0,95,0.00,,,0.45,Wunderground v.1.15,2013-09-23 04:33:00,
2013-09-22 22:43:00,57.8,56.4,29.66,NNW,342,0.0,0.0,95,0.00,,,0.45,Wunderground v.1.15,2013-09-23 04:43:00,
2013-09-22 22:53:00,57.6,55.9,29.67,NW,307,0.0,2.0,94,0.00,,,0.45,Wunderground v.1.15,2013-09-23 04:53:00,
2013-09-22 22:58:00,57.7,53.9,29.67,WNW,295,1.0,1.0,87,0.00,,,0.45,Wunderground v.1.15,2013-09-23 04:58:00,
2013-09-22 23:08:00,57.7,52.2,29.67,NW,317,2.0,2.0,82,0.00,,,0.45,Wunderground v.1.15,2013-09-23 05:08:00,
2013-09-22 23:13:00,57.5,50.3,29.67,WNW,285,2.0,3.0,77,0.00,,,0.45,Wunderground v.1.15,2013-09-23 05:13:00,
2013-09-22 23:18:00,57.4,49.5,29.68,West,264,2.0,2.0,75,0.00,,,0.45,Wunderground v.1.15,2013-09-23 05:18:00,
2013-09-22 23:28:00,56.4,48.6,29.68,WSW,250,1.0,1.0,75,0.00,,,0.45,Wunderground v.1.15,2013-09-23 05:28:00,
2013-09-22 23:33:00,56.0,46.7,29.68,WNW,294,1.0,1.0,71,0.00,,,0.45,Wunderground v.1.15,2013-09-23 05:33:00,
2013-09-22 23:38:00,56.0,46.0,29.69,WSW,242,1.0,2.0,69,0.00,,,0.45,Wunderground v.1.15,2013-09-23 05:38:00,
2013-09-22 23:48:00,56.4,44.4,29.69,NW,319,2.0,2.0,64,0.00,,,0.45,Wunderground v.1.15,2013-09-23 05:48:00,
2013-09-22 23:58:00,56.7,43.8,29.70,NW,309,3.0,3.0,62,0.00,,,0.00,Wunderground v.1.15,2013-09-23 05:58:00,